Location: Azul
(36.7830°S, 59.8500°W)
Time: 00:27:53
(UTC-03:00)

NOAA 15 - Pass Details

Date: 27 October 2021
Orbit: 797 x 813 km, 98.7° (Epoch: 30 November)

Event Time Altitude Azimuth Distance (km) Brightness Sun altitude
Rises 21:47:01 0° 182° (S) 3,342 8.4 -25.1°
Reaches altitude 10° 21:49:45 10° 195° (SSW) 2,406 7.8 -25.5°
Maximum altitude 21:53:55 24° 246° (WSW) 1,625 6.8 -26.1°
Drops below altitude 10° 21:58:05 10° 298° (WNW) 2,391 7.2 -26.7°
Sets 22:00:48 0° 312° (NW) 3,316 7.8 -27.1°
